Location: Abraham Lincoln Continuation High School
(33.9711°N, 117.3662°W)
Time: 14:50:13
(UTC+00:00)

Cosmos 1844 - Pass Details

Date: 21 September 2020
Orbit: 824 x 866 km, 70.9° (Epoch: 29 October)

Event Time Altitude Azimuth Distance (km) Brightness Sun altitude
Rises 03:23:47 0° 202° (SSW) 3,416 6.9 -20.4°
Reaches altitude 10° 03:26:15 10° 203° (SSW) 2,478 6.2 -20.9°
Maximum altitude 03:31:57 81° 291° (WNW) 862 3.7 -22.1°
Drops below altitude 10° 03:37:37 10° 19° (NNE) 2,463 6.1 -23.2°
Sets 03:40:04 0° 20° (NNE) 3,395 6.8 -23.7°
